User: anonymous   Login
Location: Dunedin
(45.8670°S, 170.5000°E)
Time: 09:30:37
(UTC+12:00)
Language:

Cosmos 2263 Rocket - Orbit

View from above orbital plane
View from above orbital plane
View from above satellite
View from above satellite

Ground track
Ground track

The orbit data is extracted from the following two-line orbital elements,

1 22803U 93059B   19140.16118888  .00000246  00000-0  14677-3 0  9997
2 22803  70.9904 210.1833 0016001  30.3761 329.8287 14.16805628327712
Epoch (UTC): 20 May 2019 03:52:06
Eccentricity: 0.0016001
inclination: 70.9904°
perigee height: 824 km
apogee height: 848 km
right ascension of ascending node: 210.1833°
argument of perigee: 30.3761°
revolutions per day: 14.16805628
mean anomaly at epoch: 329.8287°
orbit number at epoch: 32771

The dashed part of the orbit path shows where the satellite is in the earth's shadow,  

DLR